Weather observations for the past three days for
Hagerstown, Washington County Regional Airport
Imperial (Metric)
Date Time (edt) Wind (mph) Vis. (mi.) Weather Sky Cond. Temperature (ºF) Relative Humidity Wind Chill (°F) Heat Index (°F) Pressure Precipitation (in)
Air Dwpt 6 hour altimeter (in) sea level (mb) 1 hr 3 hr 6 hr
Max. Min.
22 05:53 Calm 10.00 Fair CLR 77 66.9 71% 79 30.09 1019.0
22 04:53 S 3 10.00 Fair CLR 77 68 74% 79 30.08 1018.8
22 03:53 Calm 10.00 Fair CLR 79 66.9 67% 81 30.08 1018.8
22 02:53 SE 5 10.00 Fair CLR 80.1 66.9 64% 82 30.08 1018.8
22 01:53 SE 6 10.00 Mostly Cloudy BKN060 82 66.9 91.9 82 60% 85 30.09 1019.1
22 00:53 SE 5 10.00 Fair CLR 82 66 58% 84 30.1 1019.5
21 23:53 SE 3 10.00 Partly Cloudy SCT065 84 66.9 57% 87 30.11 1019.8
21 22:53 S 6 10.00 Partly Cloudy SCT070 86 66.9 53% 89 30.11 1019.8
21 21:53 S 7 10.00 A Few Clouds FEW070 88 66.9 50% 91 30.1 1019.5
21 20:53 S 5 10.00 Fair CLR 89.1 66.9 48% 92 30.09 1019.2
21 19:53 S 7 10.00 Fair CLR 91.9 66.9 95 91 44% 95 30.09 1019.0
21 18:53 Vrbl 3 10.00 Fair CLR 93 66.9 42% 97 30.09 1018.9
21 17:53 Calm 10.00 Fair CLR 93 68 44% 97 30.1 1019.4
21 16:53 SW 9 10.00 Fair CLR 93.9 66.9 41% 98 30.11 1019.9
21 15:53 Vrbl 6 10.00 Fair CLR 93 66.9 42% 97 30.13 1020.5
21 14:53 Calm 10.00 Fair CLR 91.9 66.9 44% 95 30.15 1021.0
21 13:53 S 5 10.00 Fair CLR 91.9 66.9 91.9 75.9 44% 95 30.17 1021.9
21 12:53 SW 8 10.00 Fair CLR 89.1 66 47% 92 30.2 1022.9
21 11:53 Vrbl 6 10.00 Fair CLR 88 66 48% 90 30.22 1023.5
21 10:53 Calm 10.00 Fair CLR 86 66.9 53% 89 30.22 1023.5
21 09:53 S 5 10.00 Fair CLR 82.9 66.9 59% 86 30.24 1024.2
21 08:53 SW 5 10.00 Fair CLR 79 66 65% 81 30.24 1024.3
21 07:53 Calm 10.00 Fair CLR 75.9 66 78.1 71.1 72% 77 30.24 1024.2
21 06:53 Calm 10.00 Fair CLR 75 64.9 71% 77 30.24 1024.2
21 05:53 Calm 10.00 Fair CLR 72 64 76% 30.24 1024.2
21 04:53 E 6 10.00 Fair CLR 72 64 76% 30.23 1024.0
21 03:53 Calm 10.00 Fair CLR 73 64 74% 30.24 1024.3
21 02:53 S 3 10.00 Fair CLR 75.9 64 67% 78 30.24 1024.4
21 01:53 S 7 10.00 Fair CLR 77 64 88 77 64% 79 30.25 1024.6
21 00:53 S 7 10.00 Fair CLR 78.1 64.9 64% 80 30.26 1024.8
20 23:53 S 10 10.00 Fair CLR 81 64 57% 83 30.26 1025.0
20 22:53 S 7 10.00 Fair CLR 82 64 55% 84 30.26 1025.0
20 21:53 S 6 10.00 Fair CLR 82.9 64.9 55% 85 30.25 1024.5
20 20:53 S 7 10.00 Fair CLR 84.9 64.9 51% 87 30.24 1024.2
20 19:53 S 7 10.00 Fair CLR 88 64 91.9 86 45% 89 30.24 1024.4
20 18:53 S 5 10.00 Fair CLR 89.1 62.1 41% 89 30.25 1024.5
20 17:53 SE 5 10.00 Fair CLR 89.1 64 43% 90 30.25 1024.7
20 16:53 S 8 10.00 Fair CLR 90 64 42% 91 30.27 1025.2
20 15:53 SE 9 10.00 Fair CLR 90 64 42% 91 30.28 1025.8
20 14:53 S 7 10.00 Fair CLR 89.1 64 43% 90 30.31 1026.5
20 13:53 S 6 10.00 A Few Clouds FEW046 88 64.9 88 73 46% 90 30.31 1026.8
20 12:53 Vrbl 6 10.00 A Few Clouds FEW041 86 66 51% 88 30.33 1027.4
20 11:53 Vrbl 7 10.00 Fair CLR 84.9 64.9 51% 87 30.35 1027.9
20 10:53 S 8 10.00 Fair CLR 82.9 66.9 59% 86 30.35 1028.0
20 09:53 S 3 10.00 Fair CLR 80.1 64.9 60% 82 30.35 1028.1
20 08:53 S 6 10.00 Fair CLR 78.1 66 67% 80 30.35 1028.0
20 07:53 Calm 10.00 Fair CLR 73 64.9 75 69.1 76% 30.36 1028.2
20 06:53 Calm 10.00 Fair CLR 71.1 63 76% 30.34 1027.6
20 05:53 Calm 10.00 Fair CLR 70 63 79% 30.32 1027.1
20 04:53 E 7 10.00 Fair CLR 71.1 63 76% 30.32 1027.0
20 03:53 E 6 10.00 Fair CLR 72 63 73% 30.32 1027.0
20 02:53 SE 6 10.00 Fair CLR 73.9 64 71% 30.32 1027.1
20 01:53 S 6 10.00 Fair CLR 75 63 86 75 66% 77 30.33 1027.4
20 00:53 S 7 10.00 Fair CLR 77 62.1 60% 79 30.33 1027.3
19 23:53 SE 6 10.00 Fair CLR 77 63 62% 79 30.33 1027.5
19 22:53 SE 6 10.00 Fair CLR 78.1 64 62% 80 30.34 1027.6
19 21:53 E 6 10.00 Fair CLR 80.1 63 56% 81 30.32 1027.0
19 20:53 S 7 10.00 Fair CLR 82.9 61 48% 83 30.3 1026.4
19 19:53 S 8 10.00 Fair CLR 86 61 90 86 43% 86 30.3 1026.2
19 18:53 S 12 10.00 Fair CLR 88 59 38% 87 30.3 1026.3
19 17:53 SE 10 10.00 Fair CLR 89.1 60.1 38% 89 30.3 1026.2
19 16:53 Vrbl 6 10.00 A Few Clouds FEW050 89.1 64 43% 90 30.31 1026.5
19 15:53 SE 7 10.00 Fair CLR 89.1 64 43% 90 30.31 1026.7
19 14:53 SE 9 10.00 Fair CLR 89.1 62.1 41% 89 30.32 1027.0
19 13:53 W 7 10.00 Fair CLR 88 64 89.1 75 45% 89 30.32 1027.1
19 12:53 S 10 10.00 Fair CLR 87.1 64.9 48% 89 30.34 1027.8
19 11:53 Vrbl 6 10.00 Fair CLR 86 66.9 53% 89 30.35 1028.1
19 10:53 Calm 10.00 Fair CLR 84 66.9 57% 87 30.36 1028.4
19 09:53 E 5 10.00 Fair CLR 81 66.9 62% 83 30.36 1028.3
19 08:53 Calm 10.00 Fair CLR 79 66 65% 81 30.36 1028.2
19 07:53 Calm 10.00 Fair CLR 75 64.9 77 72 71% 77 30.34 1027.8
19 06:53 SE 3 10.00 Fair CLR 73 64.9 76% 30.33 1027.3
Date Time (edt) Wind (mph) Vis. (mi.) Weather Sky Cond. Air Dwpt Max. Min. Relative Humidity Wind Chill (°F) Heat Index (°F) altimeter (in) sea level (mb) 1 hr 3 hr 6 hr
6 hour
Temperature (ºF) Pressure Precipitation (in)